Regional Weather Roundup
Issued by NWS

Home | Current Version | Previous Version | Text Only | Print | Product List | Glossary On
Versions: 1 2 3 4 5 6 7 8 9 10 11 12 13 14 15 16 17 18 19 20 21 22 23 24 25 26 27 28 29 30 31 32 33 34 35 36 37 38 39 40 41 42 43 44 45 46 47 48 49 50
000
ASUS44 KFWD 241503
RWRTX
NORTH TEXAS HOURLY WEATHER ROUNDUP
NATIONAL WEATHER SERVICE FORT WORTH TX
1000 AM CDT THU JUL 24 2014

NOTE: "FAIR" INDICATES FEW OR NO CLOUDS BELOW 12,000 FEET WITH NO
SIGNIFICANT WEATHER AND/OR OBSTRUCTIONS TO VISIBILITY.

TXZ118-119-241600-
DALLAS/FORT WORTH METROPLEX

CITY           SKY/WX    TMP DP  RH WIND       PRES   REMARKS
DFW AIRPORT    PTSUNNY   83  69  62 VRB6      30.08R
DALLAS LOVE    MOSUNNY   79  70  74 E6        30.08R
FTW MEACHAM    SUNNY     85  66  53 CALM      30.07S
DAL-EXECUTIVE  SUNNY     82  70  66 E5        30.08R
FTW-ALLIANCE   MOSUNNY   83  67  58 E3        30.08R
FTW-NAS-JRB    MOSUNNY   87  65  47 N3        30.11S
FTW-SPINKS     SUNNY     82  66  57 CALM      30.09S
ARLINGTON      SUNNY     82  67  60 NE3       30.08R
GRAND PRAIRIE  SUNNY     79  66  65 CALM      30.08
MESQUITE       SUNNY     79  70  73 CALM      30.08F
LANCASTER      MOSUNNY   80  67  64 CALM      30.08F
$$

TXZ091>094-102>105-117-120-121-131>134-241600-
NORTH CENTRAL TEXAS

CITY           SKY/WX    TMP DP  RH WIND       PRES   REMARKS
SHRMAN/DENISON SUNNY     80  68  67 E3        30.10S
GAINESVILLE    MOSUNNY   79  68  69 CALM      30.11S
BOWIE          SUNNY     82  71  70 SE6       30.10S
BRIDGEPORT     SUNNY     82  67  60 E3        30.11R
DECATUR        MOSUNNY   82  67  62 CALM      30.10R
DENTON         MOSUNNY   82  70  66 CALM      30.08S
MCKINNEY       PTSUNNY   75  70  84 CALM      30.10R
GREENVILLE     SUNNY     79  66  65 NE5       30.09S
ROCKWALL       SUNNY     78  69  73 NE3       30.08S
TERRELL        SUNNY     81  68  64 NE5       30.07F
WAXAHACHIE     MOSUNNY   80  66  61 CALM      30.09F
CLEBURNE       SUNNY     82  70  65 SE5       30.10R
GRANBURY       SUNNY     84  65  53 SE3       30.09F
$$

TXZ083>090-098>101-113>116-127>130-139>142-154-155-241600-
WESTERN NORTH TEXAS

CITY           SKY/WX    TMP DP  RH WIND       PRES   REMARKS
WICHITA FALLS  PTSUNNY   82  71  69 S9        30.08S
WF-KICKAPOO    PTSUNNY   82  68  63 S7        30.10R
VERNON         SUNNY     85  70  61 E6        30.09R
ABILENE        MOSUNNY   85  67  54 CALM      30.11S
ABILENE-DYESS  SUNNY     87  67  50 SW3       30.10S
BRECKENRIDGE   MOSUNNY   85  67  55 SE3       30.09R HAZE
MINERAL WELLS  SUNNY     82  67  60 SE5       30.08S
STEPHENVILLE   MOSUNNY   81  68  64 CALM      30.13R
COMANCHE       SUNNY     82  69  66 SE3       30.11R
BROWNWOOD      SUNNY     84  68  58 CALM      30.10S
COLEMAN        SUNNY     82  67  58 CALM      30.11S
BRADY          SUNNY     81  70  69 E5        30.11S
$$

TXZ143>147-156>162-174-175-241600-
CENTRAL TEXAS

CITY           SKY/WX    TMP DP  RH WIND       PRES   REMARKS
WACO           MOSUNNY   82  70  66 SE5       30.07S
WACO-TSTC      MOSUNNY   82  68  61 CALM      30.07S
WACO-MCGREGOR  MOSUNNY   84  70  61 SW6       30.08S
HILLSBORO      MOSUNNY   82  67  58 CALM      30.08S
CORSICANA      MOSUNNY   81  68  64 N3        30.08S
MEXIA          PTSUNNY   80  69  68 N3        30.06S
HEARNE         PTSUNNY   88  83  85 CALM      30.06S HX 109
CAMERON        PTSUNNY   77  74  90 NE3       30.06S
TEMPLE         MOSUNNY   81  68  65 S7        30.07S
KILLEEN        PTSUNNY   79  70  73 S5        30.08S
KILLEEN-SKYLRK MOSUNNY   81  68  65 SE5       30.07F
FORT HOOD      MOSUNNY   83  71  67 CALM      30.07F
GATESVILLE     SUNNY     81  70  69 S3        30.10S
HAMILTON       SUNNY     83  69  61 CALM      30.11S
LAMPASAS       MOSUNNY   81  72  75 E3        30.09S
$$

TXZ095>097-106>112-122>126-135>138-148>153-164>167-241600-
EAST TEXAS

CITY           SKY/WX    TMP DP  RH WIND       PRES   REMARKS
PARIS          PTSUNNY   70  64  83 CALM      30.10S
SULPHUR SPRNGS CLOUDY    74  69  85 CALM      30.11R HAZE
CLARKSVILLE    PTSUNNY   71  71  99 CALM      30.09R
MOUNT PLEASANT MOSUNNY   72  72  99 CALM      30.10S
GILMER         CLOUDY    72  72 100 CALM      30.09S
MINEOLA        CLOUDY    72  72 100 NW3       30.09S FOG
TYLER          MOSUNNY   76  69  79 CALM      30.07S
LONGVIEW       MOSUNNY   76  69  79 CALM      30.06F
MARSHALL       CLOUDY    73  71  91 CALM      30.09S
JACKSONVILLE   SUNNY     77  70  77 CALM      30.09F
HENDERSON      SUNNY     78  68  72 CALM      30.08F
NACOGDOCHES    SUNNY     81  70  69 N8        30.06S
LUFKIN         SUNNY     84  69  60 NW7       30.04F
$$

SUPPLEMENTAL OBSERVATIONS (CENTRAL)

CITY           SKY/WX    TMP DP  RH WIND       PRES   REMARKS
$$

SUPPLEMENTAL OBSERVATIONS (WEST)

CITY           SKY/WX    TMP DP  RH WIND       PRES   REMARKS
$$

SUPPLEMENTAL OBSERVATIONS (EAST)

CITY           SKY/WX    TMP DP  RH WIND       PRES   REMARKS
$$

SUPPLEMENTAL OBSERVATIONS ARE A COLLECTION OF AUTOMATED INSTRUMENTS
THAT ARE MAINTAINED BY A VARIETY OF FEDERAL AND STATE AGENCIES.
CERTAIN ELEMENTS...SUCH AS HUMIDITY VALUES AND SUSTAINED WIND
SPEEDS...MAY BE APPROXIMATED.




USA.gov is the U.S. government's official web portal to all federal, state and local government web resources and services.